Content
SEND FEEDBACK

Daily
Averages
Monthly
Summary
United States of America

ST. LOUIS, MISSOURI


Home > North America > United States > Missouri
Elevation: 163 meters     Latitude: 38 45N     Longitude: 090 22W

WEATHER
 
SELECT A DAY
Number of Records: 196,395;   Date Range: 1/1/95 - 7/29/14
 
SHARE

PRINT THIS DATA

[ ← Previous Day ]
WEATHER ALMANAC - 28 FEBRUARY, 2013
[ Next Day → ]
[ °F ]   °C
Weather ElementAverageHighLow
Temperature0.4 °C1.7 °C (3:54 pm)-0.6 °C (11:54 pm)
Dewpoint-2.7 °C-1.7 °C (7:54 pm)-3.3 °C (1:54 am)
Humidity79.8 %89 % (11:54 pm)70 % (3:54 pm)
Barometer1017.9 hPa1020.7 hPa (7:54 pm)1012.9 hPa (3:07 am)
Wind Speed15 km/h25.9 km/h (10:54 am)
Wind Gust33.3 km/h (8:54 am)
Weather ElementAverage
Visibility12.2 km
Wind DirectionWNW (286.4 °)

Weather ElementTotal
Precipitation---
Heating Degree Days17.8 (Base 18.3)
Averaged from 28 records on 28 February, 2013
WEATHER CONDITIONS BREAKOUT
WIND DIRECTION BREAKOUT
WEATHER BY HOUR - 28 FEBRUARY, 2013
[ °F ]   °C
Local TimeTemperatureDewpointHumidityBarometerVisibilityWind DirectionWind SpeedGust SpeedPrecipitationEventsConditions
1:54 AM0 °C-3.3 °C79 %1013.5 hPa16.1 kmWest (270°)16.7 km/hOvercast
2:54 AM0 °C-3.3 °C79 %1013.5 hPa16.1 kmWest (280°)20.4 km/hOvercast
3:07 AM0 °C-3 °C80 %1012.9 hPa16.1 kmWest (280°)16.7 km/hOvercast
3:54 AM0 °C-3.3 °C79 %1014.2 hPa16.1 kmWest (280°)14.8 km/hOvercast
4:54 AM0 °C-3.3 °C79 %1014.9 hPa16.1 kmWNW (290°)13 km/hOvercast
5:54 AM0 °C-3 °C80 %1014.6 hPa16.1 kmWNW (290°)13 km/hOvercast
6:54 AM0 °C-2.8 °C82 %1015.9 hPa12.9 kmWest (280°)20.4 km/hOvercast
7:54 AM0.6 °C-2.8 °C78 %1016.9 hPa14.5 kmWest (280°)16.7 km/hOvercast
8:54 AM0.6 °C-2.2 °C82 %1017.3 hPa12.9 kmWNW (300°)16.7 km/h33.3 km/hOvercast
9:54 AM1.1 °C-2.8 °C75 %1017.9 hPa14.5 kmWNW (290°)24.1 km/h31.5 km/hOvercast
10:34 AM1 °C-3 °C75 %1017.3 hPa16.1 kmWNW (300°)24.1 km/hOvercast
10:54 AM1.1 °C-2.8 °C75 %1018.3 hPa16.1 kmWNW (300°)25.9 km/h33.3 km/hOvercast
11:54 AM0.6 °C-3.3 °C75 %1018.6 hPa14.5 kmWest (280°)24.1 km/hOvercast
12:54 PM1.1 °C-2.8 °C75 %1018.6 hPa14.5 kmWNW (300°)20.4 km/hOvercast
1:54 PM1.1 °C-3.3 °C73 %1018.6 hPa16.1 kmWest (270°)18.5 km/hOvercast
2:54 PM1.1 °C-3.3 °C73 %1019 hPa16.1 kmWNW (290°)16.7 km/hOvercast
3:54 PM1.7 °C-3.3 °C70 %1019.3 hPa16.1 kmWest (280°)14.8 km/hOvercast
4:54 PM1.7 °C-3.3 °C70 %1019.6 hPa16.1 kmWNW (300°)14.8 km/hOvercast
5:54 PM1.1 °C-2.8 °C75 %1020 hPa12.9 kmWNW (300°)9.3 km/h0 mmSnowLight Snow
6:54 PM0.6 °C-2.2 °C82 %1020.3 hPa8 kmWNW (300°)9.3 km/h0 mmSnowLight Snow
7:54 PM0 °C-1.7 °C88 %1020.7 hPa6.4 kmWest (270°)7.4 km/h0 mmSnowLight Snow
8:07 PM0 °C-2 °C87 %1019.6 hPa4.8 kmWest (280°)7.4 km/h0 mmSnowLight Snow
8:14 PM0 °C-2 °C87 %1019.6 hPa4.8 kmWest (280°)7.4 km/h0 mmSnowLight Snow
8:26 PM0 °C-2 °C87 %1019.6 hPa4.8 kmWest (280°)7.4 km/h0 mmSnowLight Snow
8:54 PM0 °C-1.7 °C88 %1020.7 hPa6.4 kmWest (280°)9.3 km/h0 mmSnowLight Snow
9:54 PM0 °C-1.7 °C88 %1020.7 hPa4.8 kmWest (270°)7.4 km/h0 mmSnowLight Snow
10:54 PM0 °C-2.2 °C85 %1020.3 hPa6.4 kmWNW (290°)11.1 km/h0 mmSnowLight Snow
11:54 PM-0.6 °C-2.2 °C89 %1020.3 hPa4.8 kmNW (310°)11.1 km/h0 mmSnowLight Snow
Hourly data recorded from KSUS, located 0 kilometers away from St. Louis, Missouri







STORIES FROM OUR PARTNERS